Flag for U.S.A. Weather past 2 weeks in Babylon, New York, U.S.A.

Now
83 °F

Partly sunny.


Feels Like: 84 °F
Forecast: 73 / 84 °F
Wind: 13 mph from Southwest

Location: Republic Airport

Current Time: Aug 3, 2015 at 11:38:26 AM

Latest Report: Aug 3, 2015 at 10:53 AM


Visibility: 10 mi

Pressure: 29.87 "Hg

Humidity: 51%

Dew point: 63 °F

Location of BabylonLocation

Historic Weather in Babylon — Graph

°F

Babylon temperature yesterday

Maximum temperature yesterday: 85 °F (at 2:53 PM)
Minimum temperature yesterday: 68 °F (at 5:53 AM)
Average temperature yesterday: 78 °F

Past Weeks' High & Low Weather Summary

 TemperatureHumidityPressure
High94 °F (Jul 20, 12:53 PM)94% (Jul 30, 10:56 AM)30.05 "Hg (Jul 30, 10:56 AM)
Low65 °F (Jul 23, 5:53 AM)26% (Jul 31, 5:53 PM)29.58 "Hg (Jul 21, 5:53 PM)
Average79 °F62%29.87 "Hg
* Reported Jul 19 9:53 AM — Aug 3 9:53 AM, Babylon, Weather by CustomWeather, © 2015

Note: Actual official high and low records may vary slightly from our data, if they occured in-between our weather recording intervals... More about our weather records

Advertising

Babylon weather history for previous 24 hours

 ConditionsComfort  
Time TempWeatherWind HumidityBarometerVisibility
9:53 AM
Mon, Aug 3
82 °FSunny.14 mph49%29.86 "Hg10 mi
8:53 AM80 °FSunny.10 mph58%29.86 "Hg10 mi
7:53 AM76 °FSunny.8 mph69%29.87 "Hg10 mi
6:53 AM73 °FSunny.5 mph74%29.85 "Hg10 mi
5:53 AM72 °FClear.3 mph73%29.85 "Hg10 mi
4:53 AM72 °FClear.5 mph73%29.85 "Hg10 mi
3:53 AM73 °FClear.7 mph69%29.85 "Hg10 mi
2:53 AM75 °FClear.7 mph62%29.85 "Hg10 mi
1:53 AM76 °FClear.6 mph64%29.86 "Hg10 mi
12:53 AM76 °FClear.7 mph80%29.88 "Hg10 mi
11:53 PM
Sun, Aug 2
76 °FClear.7 mph80%29.87 "Hg10 mi
10:53 PM77 °FClear.10 mph74%29.87 "Hg10 mi
9:53 PM77 °FClear.8 mph77%29.90 "Hg10 mi
8:53 PM78 °FSunny.7 mph69%29.90 "Hg10 mi
7:53 PM79 °FSunny.12 mph62%29.88 "Hg10 mi
6:53 PM81 °FSunny.12 mph54%29.88 "Hg10 mi
5:53 PM84 °FSunny.13 mph41%29.89 "Hg10 mi
4:53 PM84 °FSunny.12 mph43%29.90 "Hg10 mi
3:53 PM84 °FSunny.12 mph43%29.90 "Hg10 mi
2:53 PM85 °FSunny.12 mph42%29.90 "Hg10 mi
1:53 PM84 °FSunny.12 mph38%29.92 "Hg10 mi
12:53 PM84 °FSunny.12 mph38%29.93 "Hg10 mi
11:53 AM84 °FSunny.9 mph40%29.94 "Hg10 mi
Weather by CustomWeather, © 2015

See weather overviewHow to use our weather pages